{"data":{"norad_id":65635,"intl_designator":"2025-210P","name":"STARLINK-35150","alt_names":[],"object_type":"PAYLOAD","status":"ACTIVE","operator":null,"country":"US","launch_date":"2025-09-18","launch_site_code":"AFETR","launch_vehicle":null,"mission":null,"orbit_class":"UNKNOWN","rcs_meters":null,"size_class":null,"mass_kg":null,"dimensions":null,"purposes":["comms"],"wikipedia_slug":null,"has_3d_model":false,"image_url":null,"decayed_at":null,"tle_current":{"epoch":"2026-05-24T21:17:55.072608Z","epoch_age_seconds":91527,"freshness":"FRESH","line1":"1 65635U 25210P   26144.88744297  .00022124  00000+0  75665-3 0  9993","line2":"2 65635  53.1584 313.4063 0000864  73.9475 286.1621 15.30209686 39396","mean_motion":15.30209686,"eccentricity":8.64e-5,"inclination_deg":53.1584,"raan_deg":313.4063,"arg_perigee_deg":73.9475,"mean_anomaly_deg":286.1621,"bstar":0.00075665,"rev_number":3939,"period_min":94.104750033585,"perigee_km":474.59402180172,"apogee_km":475.77827604186,"semimajor_km":6853.3231489218,"source":"CELESTRAK","updated_at":"2026-05-25T13:38:20.883592Z"}}}